Regional Weather Roundup
Issued by NWS Goodland, KS

Home | Current Version | Previous Version | Graphics & Text | Print | Product List | Glossary On
Versions: 1 2 3 4 5 6 7 8 9 10 11 12 13 14 15 16 17 18 19 20 21 22 23 24 25 26 27 28 29 30 31 32 33 34 35 36 37 38 39 40 41 42 43 44 45 46 47 48 49 50
850
ASUS43 KGLD 280308
RWRGLD

GOODLAND FORECAST AREA HOURLY WEATHER ROUNDUP
NATIONAL WEATHER SERVICE GOODLAND KS
900 PM MDT TUE JUN 27 2017

...OFFICIAL OBSERVATIONS...

CITY           SKY/WX    TMP DP  RH WIND       PRES   REMARKS
GOODLAND KS    CLOUDY    76  55  48 S21       29.73S
HILL CITY KS   MOCLDY    86  60  41 S17G26    29.69R
IMPERIAL NEB   CLOUDY    78  44  29 CALM      29.64F
MCCOOK NEB     CLOUDY    82  55  39 NW9       29.69R
AKRON CO       CLEAR     76  38  25 N16       29.82R
BURLINGTON CO  CLOUDY    76  53  44 S31G46    29.74F
LIMON CO       CLOUDY    68  48  48 E3        29.84R
$$

...UNOFFICIAL OBSERVATIONS...

CITY           SKY/WX    TMP DP  RH WIND       PRES   REMARKS
LENORA KS        N/A     84  32  15 MISG        N/A
NORTON KS      PTCLDY    88  52  29 S22G29    29.67R
SHARON SPRINGS   N/A     81  56  42 E6G15       N/A
TRENTON NEB      N/A     77  32  19 CALM        N/A
KIT CARSON CO    N/A     70  55  59 MISG        N/A
YUMA CO        FAIR      68  46  45 S7        29.74F
$$




USA.gov is the U.S. government's official web portal to all federal, state and local government web resources and services.